Regional Weather Roundup
Issued by NWS Little Rock, AR

Home | Current Version | Previous Version | Text Only | Print | Product List | Glossary On
Versions: 1 2 3 4 5 6 7 8 9 10 11 12 13 14 15 16 17 18 19 20 21 22 23 24 25 26 27 28 29 30 31
000
ASUS44 KLZK 190305
RWRLZK

WEATHER ROUNDUP FOR ARKANSAS
NATIONAL WEATHER SERVICE LITTLE ROCK AR
900 PM CST WED JAN 18 2017

NOTE: "FAIR" INDICATES FEW OR NO CLOUDS BELOW 12,000 FEET WITH NO
SIGNIFICANT WEATHER AND/OR OBSTRUCTIONS TO VISIBILITY.

ARZ001-003-010-029-190400-
NORTHWEST ARKANSAS

CITY           SKY/WX    TMP DP  RH WIND       PRES   REMARKS
FAYETTEVILLE   CLOUDY    48  48 100 CALM      29.99F
FORT SMITH     CLOUDY    46  43  89 E8        30.01F
HARRISON       CLOUDY    42  41  96 SE8       30.02F FOG
BENTONVILLE    CLOUDY   N/A N/A N/A SE6       29.98F
ROGERS         CLOUDY    44  43  96 E8        29.99F FOG
SILOAM SPGS    CLOUDY    46  45  93 S5        29.98S
HIGHFILL       CLOUDY    47  47 100 SE7       29.98F FOG
SPRINGDALE     CLOUDY    48  48 100 SE5       30.00F
$$

ARZ004-005-016-190400-
NORTH CENTRAL ARKANSAS

CITY           SKY/WX    TMP DP  RH WIND       PRES   REMARKS
BATESVILLE     CLOUDY    45  41  87 E5        30.07R
FLIPPIN        CLOUDY    45  37  76 E5        30.02F
MTN HOME       CLOUDY    43  41  93 SE6       30.03F
$$

ARZ040-041-190400-
WEST CENTRAL ARKANSAS

CITY           SKY/WX    TMP DP  RH WIND       PRES   REMARKS
MENA           CLOUDY    46  46 100 E5        30.01S
MOUNT IDA      CLOUDY    47  46  97 CALM      29.99F FOG
$$

ARZ009-017-025-026-028-190400-
NORTHEAST ARKANSAS

CITY           SKY/WX    TMP DP  RH WIND       PRES   REMARKS
CORNING        CLOUDY    45  43  93 NE6       30.08F
JONESBORO      CLOUDY    46  44  93 NE7       30.07F
NEWPORT        CLOUDY    46  44  93 MISG      30.07
WALNUT RIDGE   CLOUDY    45  39  81 NE6       30.07F
BLYTHEVILLE    CLOUDY    48  44  86 NE6       30.08S
$$

ARZ022-023-033-042-044-190400-
CENTRAL ARKANSAS

CITY           SKY/WX    TMP DP  RH WIND       PRES   REMARKS
LITTLE ROCK    CLOUDY    47  46  97 N5        30.04F
N LITTLE ROCK    N/A     46  44  95 E3        30.06R
JACKSONVILLE   CLOUDY    48  47  96 NE5       30.03S
SEARCY         CLOUDY    47  45  93 NE8       30.06S
HOT SPRINGS    CLOUDY    48  47  96 E3        30.02F
RUSSELLVILLE   CLOUDY    46  44  93 E3        30.04F FOG
CLINTON        CLOUDY    46  43  87 CALM      30.05S FOG
$$

ARZ036-190400-
EAST ARKANSAS

CITY           SKY/WX    TMP DP  RH WIND       PRES   REMARKS
WEST MEMPHIS   CLOUDY    51  49  92 N5        30.04S
$$

ARZ050-053-066-070-073-190400-
SOUTHWEST ARKANSAS

CITY           SKY/WX    TMP DP  RH WIND       PRES   REMARKS
ARKADELPHIA    CLOUDY    48  47  96 N7        30.03R
CAMDEN         CLOUDY    50  48  93 N3        30.01S
TEXARKANA      CLOUDY    48  48 100 NE8       30.00F FOG
EL DORADO      CLOUDY    52  52 100 NW6       29.99S FOG
DE QUEEN       CLOUDY    49  49 100 E7        29.99F
$$

ARZ056-057-069-190400-
SOUTHEAST ARKANSAS

CITY           SKY/WX    TMP DP  RH WIND       PRES   REMARKS
PINE BLUFF     CLOUDY    50  49  96 N5        30.03R
STUTTGART      CLOUDY    48  43  81 N9        30.03F
MONTICELLO     CLOUDY    54  54 100 CALM      29.98S

$$






USA.gov is the U.S. government's official web portal to all federal, state and local government web resources and services.